Regional Weather Roundup
Issued by NWS

Home | Current Version | Previous Version | Graphics & Text | Print | Product List | Glossary On
Versions: 1 2 3 4 5 6 7 8 9 10 11 12 13 14 15 16 17 18 19 20 21 22 23 24 25 26 27 28 29 30 31 32 33 34 35 36 37 38 39 40 41 42 43 44 45 46 47 48 49 50
000
ASUS45 KABQ 200501
RWRNM
NEW MEXICO REGIONAL WEATHER ROUNDUP
NATIONAL WEATHER SERVICE ALBUQUERQUE NM
1000 PM MST SUN FEB 19 2017

NOTE: "FAIR" MEANS FEW OR NO CLOUDS BELOW 12,000 FEET AGL WITH NO
       SIGNIFICANT WEATHER OR OBSTRUCTIONS TO VISION.

      THIS PRODUCT IS RELEASED AS TWO VERSIONS.  ONE VERSION NEAR
      THE TOP OF THE HOUR CONTAINING PRELIMINARY DATA FROM ALBUQUERQUE
      AND OTHER STATIONS.  A FINAL VERSION WITH ADDITIONAL DATA IS
      ISSUED ABOUT 10 MINUTES AFTER THE HOUR.

NMZ501-503-504-510>518-200600-
NORTHWEST PLATEAU/NORTHCENTRAL MOUNTAINS

CITY           SKY/WX    TMP DP  RH WIND       PRES   REMARKS
FARMINGTON     CLOUDY    39  36  89 CALM      29.97R
LOS ALAMOS     MOCLDY    37  26  63 W12       29.96R WCI  30
SANTA FE       FAIR      36  30  79 SW8       29.95R WCI  30
TAOS           MOCLDY    34  21  60 SW13      29.94R WCI  25
ANGEL FIRE     MOCLDY    30  24  80 W9G20     29.92F WCI  21

$$
NMZ402-403-502-505>509-200600-
WESTCENTRAL MOUNTAINS/SOUTHWEST MOUNTAINS

CITY           SKY/WX    TMP DP  RH WIND       PRES   REMARKS
GALLUP         LGT RAIN  37  34  89 W5        30.04R WCI  33
GRANTS         CLOUDY    35  32  89 CALM      30.04R
SILVER CITY    MOCLDY    41  36  83 W7        30.08S

$$
NMZ407-409-411-412-200600-
SOUTHERN DESERTS

CITY           SKY/WX    TMP DP  RH WIND       PRES   REMARKS
DEMING         CLOUDY    45  37  73 SW9       30.08R
LAS CRUCES     FAIR      45  35  69 W13       30.05S
HOLLOMAN AFB   FAIR      47  31  55 CALM      30.05R
ALAMOGORDO     FAIR      45  28  53 CALM      30.03S
T OR C         FAIR      44  31  60 N5        30.03R

$$
NMZ519>523-200600-
CENTRAL VALLEYS/CENTRAL HIGHLANDS

CITY           SKY/WX    TMP DP  RH WIND       PRES   REMARKS
ALBUQUERQUE    MOCLDY    44  32  62 SW9       30.00R
DOUBLE EAGLE   MOCLDY    37  30  75 SW9       30.00R WCI  31
MORIARTY ARPT  FAIR      35  32  90 W9        29.99S WCI  28
CLINES CORNERS FAIR      32  30  92 W16       29.97S WCI  21
BELEN          MOCLDY    41  33  73 SW8       30.01R
SOCORRO        FAIR      43  32  66 CALM      30.01R

$$
NMZ524>526-539-540-200600-
SOUTHCENTRAL MOUNTAINS

CITY           SKY/WX    TMP DP  RH WIND       PRES   REMARKS
RUIDOSO        NOT AVBL

$$
NMZ527>531-200600-
NORTHEAST HIGHLANDS/NORTHEAST PLAINS

CITY           SKY/WX    TMP DP  RH WIND       PRES   REMARKS
LAS VEGAS      FAIR      34  24  67 SW16      29.88F WCI  24
RATON          FAIR      38  19  46 SW13      29.79S WCI  30
CLAYTON        FAIR      40  28  62 SW10      29.76F WCI  33

$$
NMZ532>537-200600-
EASTCENTRAL PLAINS

CITY           SKY/WX    TMP DP  RH WIND       PRES   REMARKS
TUCUMCARI      FAIR      49  31  49 W16       29.84R
CANNON AFB     FAIR      45  29  53 W6        29.89R
CLOVIS AIRPORT FAIR      41  28  60 SW9       29.89S

$$
NMZ028-029-538-200600-
SOUTHEAST PLAINS

CITY           SKY/WX    TMP DP  RH WIND       PRES   REMARKS
ROSWELL        FAIR      44  28  53 W8          N/A
ARTESIA        FAIR      48  30  49 W14       29.92S
CARLSBAD       FAIR      50  29  44 SW7       29.94R
HOBBS          FAIR      46  25  42 SW9       29.93F


$$




USA.gov is the U.S. government's official web portal to all federal, state and local government web resources and services.